Simultaneous Nadir Overpasses (SNOs) Predictions

Prediction of SNOs between AQUA and GOES-15 Satellite Orbit:

Table of predicted SNOs for the next 14.0 days since TLE Epoch: 9/21/2024
Index Date Time (AQUA) AQUA Lat,Lon GOES-15 Lat,Lon Distance(km) Time Diff (sec)
1 09/21/2024 22:01:36 -0.26, 64.01 0.30, 61.32 305.31 80
2 09/22/2024 10:21:37 -0.72, 59.16 -0.28, 61.31 243.95 80
3 09/24/2024 10:03:59 0.20, 63.47 -0.29, 61.30 247.33 80
4 09/24/2024 22:23:50 0.81, 58.67 0.26, 61.31 299.43 80
5 09/26/2024 22:06:10 -0.08, 63.00 0.27, 61.31 191.63 80
6 09/27/2024 10:26:10 -0.91, 58.15 -0.25, 61.31 359.09 80
7 09/29/2024 10:08:29 0.00, 62.48 -0.25, 61.31 133.29 80
8 09/29/2024 22:28:19 1.01, 57.68 0.22, 61.29 411.52 80
9 10/01/2024 22:10:37 0.06, 62.00 0.24, 61.30 81.07 80
10 10/02/2024 10:30:34 -1.13, 57.18 -0.21, 61.31 470.94 80
11 10/04/2024 10:12:51 -0.20, 61.52 -0.22, 61.31 22.66 80
